QPF
0.01 0.01 0.00 0.00 0.00 0.00 0.00 0.00 0.01 0.00 0.01 0.01 0.01 0.01 0.02 0.02 0.03 0.03 0.03 0.03 0.02 0.03 0.03 0.03 0.05 0.02 0.02 0.01 0.01 0.01 0.02 0.02 0.01 0.00 0.00 0.01 0.01 0.02 0.02 0.02 0.03 0.02 0.01 0.02
0.01 0.01 0.01 0.00 0.00 0.00 0.00 0.00 0.00 0.01 0.01 0.01 0.01 0.02 0.02 0.02 0.02 0.03 0.03 0.03 0.03 0.03 0.03 0.04 0.04 0.03 0.02 0.01 0.01 0.02 0.02 0.02 0.01 0.00 0.01 0.01 0.01 0.01 0.01 0.01 0.02 0.02 0.01 0.01
0.01 0.00 0.00 0.00 0.01 0.01 0.01 0.01 0.01 0.01 0.01 0.01 0.01 0.02 0.02 0.02 0.03 0.03 0.02 0.02 0.03 0.03 0.03 0.02 0.02 0.02 0.02 0.01 0.01 0.01 0.01 0.02 0.02 0.01 0.01 0.01 0.00 0.00 0.00 0.01 0.01 0.01 0.01 0.01
0.01 0.01 0.01 0.01 0.01 0.01 0.01 0.01 0.01 0.01 0.01 0.01 0.01 0.01 0.02 0.01 0.02 0.02 0.02 0.03 0.04 0.04 0.04 0.02 0.02 0.02 0.02 0.01 0.01 0.02 0.02 0.01 0.02 0.01 0.00 0.00 0.00 0.00 0.00 0.01 0.01 0.01 0.02 0.03
0.01 0.01 0.01 0.01 0.01 0.01 0.01 0.01 0.01 0.01 0.01 0.02 0.02 0.01 0.01 0.02 0.03 0.03 0.03 0.04 0.05 0.05 0.04 0.03 0.03 0.02 0.02 0.03 0.04 0.04 0.04 0.03 0.03 0.02 0.01 0.01 0.00 0.00 0.00 0.00 0.01 0.01 0.02 0.03
0.00 0.01 0.01 0.01 0.01 0.00 0.02 0.03 0.01 0.01 0.01 0.01 0.01 0.02 0.02 0.02 0.03 0.03 0.04 0.04 0.04 0.04 0.04 0.04 0.06 0.05 0.03 0.03 0.03 0.04 0.04 0.04 0.04 0.03 0.01 0.01 0.00 0.00 0.00 0.00 0.00 0.01 0.02 0.02
0.00 0.00 0.00 0.01 0.01 0.01 0.01 0.01 0.02 0.02 0.02 0.01 0.01 0.02 0.02 0.03 0.03 0.04 0.05 0.05 0.03 0.03 0.03 0.05 0.07 0.06 0.05 0.04 0.03 0.04 0.04 0.03 0.02 0.02 0.01 0.01 0.01 0.00 0.00 0.00 0.01 0.01 0.02 0.02
0.00 0.00 0.00 0.00 0.01 0.01 0.01 0.01 0.02 0.02 0.01 0.01 0.01 0.02 0.03 0.04 0.05 0.05 0.06 0.06 0.05 0.04 0.05 0.05 0.05 0.05 0.04 0.05 0.05 0.05 0.04 0.02 0.01 0.01 0.01 0.00 0.00 0.00 0.00 0.00 0.00 0.01 0.01 0.01
0.00 0.00 0.00 0.00 0.00 0.01 0.01 0.01 0.01 0.01 0.01 0.01 0.01 0.03 0.05 0.06 0.05 0.05 0.07 0.06 0.05 0.05 0.04 0.03 0.03 0.03 0.03 0.04 0.04 0.03 0.03 0.02 0.02 0.01 0.01 0.00 0.00 0.00 0.00 0.00 0.00 0.01 0.01 0.02
0.00 0.00 0.00 0.00 0.00 0.01 0.01 0.01 0.01 0.00 0.00 0.01 0.01 0.02 0.02 0.02 0.03 0.04 0.06 0.05 0.04 0.03 0.02 0.02 0.02 0.03 0.02 0.01 0.01 0.01 0.02 0.02 0.01 0.01 0.01 0.00 0.00 0.00 0.00 0.00 0.00 0.00 0.01 0.01
0.00 0.00 0.00 0.00 0.01 0.01 0.00 0.00 0.01 0.00 0.00 0.01 0.01 0.01 0.02 0.04 0.04 0.05 0.05 0.04 0.03 0.03 0.02 0.02 0.01 0.01 0.01 0.00 0.00 0.00 0.00 0.00 0.00 0.00 0.00 0.00 0.00 0.00 0.00 0.00 0.00 0.01 0.00 0.00
0.01 0.00 0.00 0.00 0.00 0.00 0.00 0.00 0.00 0.00 0.00 0.01 0.01 0.01 0.02 0.04 0.07 0.06 0.05 0.05 0.04 0.04 0.04 0.04 0.02 0.01 0.00 0.00 0.00 0.00 0.00 0.00 0.00 0.00 0.00 0.00 0.00 0.00 0.00 0.00 0.00 0.01 0.00 0.00
0.00 0.00 0.00 0.00 0.00 0.00 0.01 0.01 0.01 0.01 0.01 0.01 0.01 0.01 0.02 0.01 0.02 0.03 0.02 0.02 0.02 0.03 0.04 0.04 0.02 0.01 0.00 0.00 0.00 0.00 0.00 0.00 0.00 0.00 0.00 0.00 0.00 0.00 0.00 0.00 0.00 0.00 0.00 0.00
0.00 0.00 0.00 0.00 0.00 0.00 0.01 0.01 0.02 0.01 0.02 0.02 0.02 0.02 0.02 0.03 0.02 0.01 0.01 0.02 0.02 0.02 0.03 0.03 0.02 0.01 0.00 0.00 0.00 0.00 0.00 0.00 0.00 0.00 0.00 0.00 0.00 0.00 0.00 0.00 0.00 0.00 0.00 0.00
0.00 0.00 0.00 0.00 0.00 0.00 0.01 0.01 0.01 0.01 0.01 0.02 0.02 0.01 0.02 0.02 0.02 0.01 0.01 0.01 0.02 0.02 0.01 0.01 0.01 0.00 0.00 0.00 0.00 0.00 0.00 0.00 0.00 0.00 0.00 0.00 0.00 0.00 0.00 0.00 0.00 0.00 0.00 0.00
0.01 0.00 0.00 0.00 0.00 0.01 0.01 0.01 0.01 0.00 0.00 0.01 0.01 0.01 0.01 0.01 0.01 0.01 0.01 0.01 0.01 0.00 0.00 0.00 0.00 0.00 0.00 0.00 0.00 0.00 0.00 0.00 0.00 0.00 0.00 0.00 0.00 0.00 0.00 0.00 0.00 0.00 0.00 0.00
0.00 0.00 0.00 0.00 0.00 0.00 0.01 0.01 0.01 0.00 0.00 0.01 0.01 0.01 0.01 0.01 0.01 0.01 0.01 0.01 0.00 0.00 0.00 0.00 0.00 0.00 0.00 0.00 0.00 0.00 0.00 0.00 0.00 0.00 0.00 0.00 0.00 0.00 0.00 0.00 0.00 0.00 0.00 0.00
0.00 0.00 0.00 0.00 0.00 0.00 0.00 0.00 0.00 0.00 0.00 0.00 0.01 0.02 0.01 0.01 0.00 0.01 0.01 0.00 0.00 0.00 0.00 0.00 0.00 0.00 0.00 0.00 0.00 0.00 0.00 0.00 0.00 0.00 0.00 0.00 0.00 0.00 0.00 0.00 0.00 0.00 0.00 0.00
0.00 0.00 0.00 0.00 0.00 0.00 0.00 0.00 0.00 0.00 0.00 0.00 0.01 0.01 0.01 0.01 0.00 0.00 0.00 0.00 0.00 0.00 0.00 0.00 0.00 0.00 0.00 0.00 0.00 0.00 0.00 0.00 0.00 0.00 0.00 0.00 0.00 0.00 0.00 0.00 0.00 0.00 0.00 0.00
0.00 0.00 0.00 0.00 0.00 0.00 0.00 0.00 0.00 0.00 0.00 0.00 0.00 0.00 0.01 0.00 0.00 0.00 0.00 0.00 0.00 0.00 0.00 0.00 0.00 0.00 0.00 0.00 0.00 0.00 0.00 0.00 0.00 0.00 0.00 0.00 0.00 0.00 0.00 0.00 0.00 0.00 0.00 0.00
0.00 0.00 0.00 0.00 0.00 0.00 0.00 0.00 0.00 0.00 0.00 0.00 0.00 0.00 0.00 0.00 0.00 0.00 0.00 0.00 0.00 0.00 0.00 0.00 0.00 0.00 0.00 0.00 0.00 0.00 0.00 0.00 0.00 0.00 0.00 0.00 0.00 0.00 0.00 0.00 0.00 0.00 0.00 0.00
0.00 0.00 0.00 0.00 0.00 0.00 0.00 0.00 0.00 0.00 0.00 0.00 0.00 0.00 0.00 0.00 0.00 0.00 0.00 0.00 0.00 0.00 0.00 0.00 0.00 0.00 0.00 0.00 0.00 0.00 0.00 0.00 0.00 0.00 0.00 0.00 0.00 0.00 0.00 0.00 0.00 0.00 0.00 0.00
0.00 0.00 0.00 0.00 0.00 0.00 0.00 0.00 0.00 0.00 0.00 0.00 0.00 0.00 0.00 0.00 0.00 0.00 0.00 0.00 0.00 0.00 0.00 0.00 0.00 0.00 0.00 0.00 0.00 0.00 0.00 0.00 0.00 0.00 0.00 0.00 0.00 0.00 0.00 0.00 0.00 0.00 0.00 0.00
0.00 0.00 0.00 0.00 0.00 0.00 0.00 0.00 0.00 0.00 0.00 0.00 0.00 0.00 0.00 0.00 0.00 0.00 0.00 0.00 0.00 0.00 0.00 0.00 0.00 0.00 0.00 0.00 0.00 0.00 0.00 0.00 0.00 0.00 0.00 0.00 0.00 0.00 0.00 0.00 0.00 0.00 0.00 0.00
0.00 0.00 0.00 0.00 0.00 0.00 0.00 0.00 0.00 0.00 0.00 0.00 0.00 0.00 0.00 0.00 0.00 0.00 0.00 0.00 0.00 0.00 0.00 0.00 0.00 0.00 0.00 0.00 0.00 0.00 0.00 0.00 0.00 0.00 0.00 0.00 0.00 0.00 0.00 0.00 0.00 0.00 0.00 0.00
0.00 0.00 0.00 0.00 0.00 0.00 0.00 0.00 0.00 0.00 0.00 0.00 0.00 0.00 0.00 0.00 0.00 0.00 0.00 0.00 0.00 0.00 0.00 0.00 0.00 0.00 0.00 0.00 0.00 0.00 0.00 0.00 0.00 0.00 0.00 0.00 0.00 0.00 0.00 0.00 0.00 0.00 0.00 0.00
0.00 0.00 0.00 0.00 0.00 0.00 0.00 0.00 0.00 0.00 0.00 0.00 0.00 0.00 0.00 0.00 0.00 0.00 0.00 0.00 0.00 0.00 0.00 0.00 0.00 0.00 0.00 0.00 0.00 0.00 0.00 0.00 0.00 0.00 0.00 0.00 0.00 0.00 0.00 0.00 0.00 0.00 0.00 0.00
MSLP
1016.93 1017.26 1017.61 1017.96 1018.28 1018.51 1018.59 1018.51 1018.24 1017.79 1017.20 1016.51 1015.78 1015.10 1014.51 1014.08 1013.83 1013.76 1013.87 1014.13 1014.50 1014.94 1015.43 1015.92 1016.41 1016.90 1017.37 1017.84 1018.31 1018.77 1019.22 1019.65 1020.06 1020.43 1020.75 1021.02 1021.23 1021.37 1021.46 1021.49 1021.46 1021.36 1021.21 1021.00
1017.70 1018.01 1018.31 1018.55 1018.72 1018.79 1018.74 1018.55 1018.22 1017.77 1017.24 1016.66 1016.09 1015.56 1015.13 1014.81 1014.63 1014.58 1014.66 1014.85 1015.13 1015.47 1015.86 1016.29 1016.74 1017.21 1017.70 1018.20 1018.70 1019.19 1019.66 1020.09 1020.48 1020.83 1021.11 1021.33 1021.50 1021.61 1021.67 1021.68 1021.63 1021.54 1021.40 1021.21
1018.34 1018.62 1018.84 1018.98 1019.02 1018.96 1018.79 1018.52 1018.17 1017.75 1017.31 1016.86 1016.45 1016.09 1015.81 1015.61 1015.51 1015.50 1015.56 1015.71 1015.91 1016.18 1016.49 1016.86 1017.28 1017.73 1018.22 1018.73 1019.23 1019.73 1020.19 1020.60 1020.95 1021.24 1021.47 1021.64 1021.75 1021.83 1021.86 1021.85 1021.81 1021.72 1021.60 1021.43
1018.86 1019.08 1019.21 1019.24 1019.16 1018.99 1018.74 1018.43 1018.08 1017.72 1017.38 1017.07 1016.82 1016.63 1016.50 1016.43 1016.42 1016.45 1016.52 1016.64 1016.81 1017.02 1017.29 1017.62 1018.00 1018.44 1018.92 1019.42 1019.91 1020.38 1020.80 1021.17 1021.46 1021.68 1021.84 1021.95 1022.01 1022.04 1022.05 1022.04 1022.00 1021.93 1021.82 1021.68
1019.25 1019.38 1019.41 1019.34 1019.16 1018.91 1018.61 1018.28 1017.97 1017.68 1017.46 1017.29 1017.20 1017.16 1017.17 1017.22 1017.29 1017.38 1017.47 1017.59 1017.74 1017.93 1018.17 1018.48 1018.85 1019.28 1019.74 1020.22 1020.68 1021.11 1021.48 1021.78 1022.00 1022.15 1022.24 1022.28 1022.30 1022.29 1022.28 1022.26 1022.23 1022.18 1022.09 1021.97
1019.52 1019.55 1019.48 1019.31 1019.06 1018.75 1018.43 1018.12 1017.86 1017.67 1017.55 1017.52 1017.56 1017.66 1017.80 1017.95 1018.09 1018.23 1018.36 1018.49 1018.64 1018.83 1019.07 1019.37 1019.73 1020.15 1020.59 1021.05 1021.48 1021.86 1022.17 1022.40 1022.56 1022.64 1022.66 1022.65 1022.62 1022.59 1022.56 1022.54 1022.52 1022.48 1022.41 1022.31
1019.66 1019.59 1019.43 1019.19 1018.89 1018.57 1018.26 1018.00 1017.81 1017.71 1017.71 1017.79 1017.95 1018.16 1018.39 1018.61 1018.81 1018.99 1019.15 1019.29 1019.45 1019.65 1019.89 1020.19 1020.55 1020.96 1021.39 1021.83 1022.22 1022.56 1022.82 1023.00 1023.09 1023.12 1023.09 1023.04 1022.99 1022.94 1022.90 1022.88 1022.86 1022.83 1022.78 1022.68
1019.67 1019.52 1019.30 1019.02 1018.71 1018.41 1018.15 1017.96 1017.86 1017.86 1017.96 1018.14 1018.39 1018.67 1018.96 1019.22 1019.46 1019.65 1019.82 1019.98 1020.14 1020.34 1020.59 1020.89 1021.25 1021.65 1022.07 1022.48 1022.85 1023.15 1023.38 1023.51 1023.58 1023.57 1023.52 1023.45 1023.38 1023.33 1023.29 1023.27 1023.26 1023.23 1023.18 1023.08
1019.55 1019.35 1019.10 1018.83 1018.56 1018.32 1018.14 1018.04 1018.04 1018.14 1018.33 1018.59 1018.90 1019.22 1019.53 1019.80 1020.04 1020.23 1020.39 1020.54 1020.70 1020.89 1021.13 1021.43 1021.78 1022.17 1022.57 1022.96 1023.31 1023.59 1023.80 1023.92 1023.97 1023.96 1023.91 1023.85 1023.78 1023.74 1023.70 1023.69 1023.67 1023.64 1023.58 1023.48
1019.28 1019.08 1018.86 1018.64 1018.44 1018.30 1018.23 1018.25 1018.35 1018.55 1018.81 1019.13 1019.47 1019.80 1020.11 1020.37 1020.58 1020.74 1020.87 1021.00 1021.13 1021.31 1021.53 1021.81 1022.14 1022.51 1022.90 1023.27 1023.60 1023.87 1024.08 1024.21 1024.27 1024.27 1024.25 1024.21 1024.16 1024.13 1024.11 1024.09 1024.08 1024.04 1023.97 1023.86
1018.89 1018.73 1018.57 1018.45 1018.37 1018.35 1018.41 1018.55 1018.77 1019.05 1019.37 1019.73 1020.08 1020.40 1020.68 1020.91 1021.07 1021.20 1021.29 1021.38 1021.48 1021.62 1021.82 1022.07 1022.37 1022.71 1023.07 1023.42 1023.74 1024.01 1024.22 1024.37 1024.46 1024.50 1024.51 1024.51 1024.50 1024.49 1024.48 1024.47 1024.44 1024.39 1024.30 1024.18
1018.40 1018.32 1018.27 1018.26 1018.32 1018.45 1018.64 1018.90 1019.21 1019.57 1019.94 1020.31 1020.66 1020.96 1021.20 1021.39 1021.51 1021.59 1021.65 1021.70 1021.77 1021.87 1022.03 1022.25 1022.51 1022.82 1023.14 1023.46 1023.76 1024.03 1024.25 1024.42 1024.55 1024.63 1024.69 1024.73 1024.76 1024.77 1024.78 1024.77 1024.74 1024.67 1024.57 1024.42
1017.87 1017.88 1017.95 1018.08 1018.28 1018.55 1018.87 1019.23 1019.63 1020.04 1020.44 1020.82 1021.15 1021.43 1021.64 1021.79 1021.88 1021.93 1021.96 1021.98 1022.02 1022.10 1022.23 1022.40 1022.63 1022.89 1023.17 1023.46 1023.74 1024.00 1024.23 1024.42 1024.57 1024.70 1024.80 1024.87 1024.93 1024.97 1024.99 1024.98 1024.94 1024.86 1024.74 1024.58
1017.32 1017.44 1017.64 1017.91 1018.24 1018.63 1019.05 1019.50 1019.95 1020.39 1020.81 1021.18 1021.50 1021.75 1021.94 1022.07 1022.15 1022.19 1022.21 1022.23 1022.26 1022.33 1022.43 1022.57 1022.76 1022.97 1023.21 1023.47 1023.72 1023.96 1024.18 1024.38 1024.55 1024.70 1024.83 1024.94 1025.02 1025.08 1025.10 1025.09 1025.05 1024.96 1024.82 1024.65
1016.81 1017.04 1017.35 1017.74 1018.18 1018.66 1019.16 1019.66 1020.15 1020.60 1021.02 1021.38 1021.68 1021.92 1022.10 1022.23 1022.32 1022.37 1022.41 1022.45 1022.49 1022.56 1022.65 1022.77 1022.93 1023.10 1023.30 1023.51 1023.72 1023.93 1024.13 1024.32 1024.50 1024.66 1024.80 1024.91 1025.01 1025.07 1025.10 1025.09 1025.03 1024.94 1024.80 1024.63
1016.36 1016.69 1017.11 1017.59 1018.11 1018.66 1019.20 1019.73 1020.22 1020.67 1021.07 1021.42 1021.70 1021.94 1022.13 1022.27 1022.39 1022.48 1022.56 1022.63 1022.71 1022.79 1022.89 1023.00 1023.13 1023.27 1023.43 1023.59 1023.75 1023.92 1024.09 1024.26 1024.41 1024.56 1024.69 1024.80 1024.89 1024.95 1024.97 1024.95 1024.90 1024.80 1024.67 1024.51
1015.99 1016.41 1016.91 1017.46 1018.04 1018.62 1019.18 1019.71 1020.19 1020.62 1021.00 1021.33 1021.61 1021.85 1022.05 1022.23 1022.39 1022.53 1022.66 1022.78 1022.90 1023.01 1023.13 1023.24 1023.35 1023.46 1023.58 1023.69 1023.81 1023.93 1024.05 1024.18 1024.30 1024.41 1024.52 1024.61 1024.67 1024.71 1024.72 1024.70 1024.64 1024.55 1024.43 1024.29
1015.70 1016.19 1016.75 1017.35 1017.95 1018.55 1019.12 1019.63 1020.10 1020.51 1020.86 1021.18 1021.45 1021.70 1021.92 1022.14 1022.34 1022.53 1022.72 1022.89 1023.05 1023.20 1023.33 1023.45 1023.55 1023.64 1023.72 1023.79 1023.86 1023.93 1024.00 1024.07 1024.14 1024.21 1024.27 1024.32 1024.36 1024.37 1024.36 1024.32 1024.27 1024.18 1024.08 1023.96
1015.49 1016.03 1016.63 1017.25 1017.87 1018.47 1019.03 1019.53 1019.97 1020.36 1020.70 1021.00 1021.28 1021.54 1021.79 1022.03 1022.28 1022.51 1022.75 1022.96 1023.16 1023.34 1023.48 1023.60 1023.70 1023.77 1023.81 1023.85 1023.87 1023.89 1023.91 1023.92 1023.94 1023.96 1023.97 1023.97 1023.96 1023.94 1023.91 1023.86 1023.79 1023.72 1023.63 1023.54
1015.34 1015.91 1016.53 1017.16 1017.79 1018.38 1018.92 1019.40 1019.83 1020.21 1020.54 1020.84 1021.12 1021.39 1021.66 1021.94 1022.21 1022.48 1022.74 1022.99 1023.21 1023.40 1023.55 1023.68 1023.76 1023.81 1023.84 1023.84 1023.83 1023.80 1023.77 1023.74 1023.71 1023.67 1023.63 1023.58 1023.53 1023.47 1023.41 1023.34 1023.26 1023.19 1023.12 1023.05
1015.25 1015.83 1016.45 1017.08 1017.69 1018.27 1018.79 1019.27 1019.68 1020.05 1020.39 1020.69 1020.98 1021.27 1021.55 1021.84 1022.13 1022.41 1022.69 1022.94 1023.17 1023.37 1023.53 1023.65 1023.73 1023.77 1023.78 1023.76 1023.72 1023.67 1023.60 1023.53 1023.45 1023.37 1023.28 1023.19 1023.09 1022.99 1022.90 1022.81 1022.73 1022.65 1022.58 1022.52
1015.19 1015.76 1016.37 1016.98 1017.57 1018.12 1018.63 1019.10 1019.51 1019.88 1020.22 1020.53 1020.83 1021.12 1021.42 1021.71 1022.00 1022.29 1022.56 1022.82 1023.04 1023.23 1023.39 1023.50 1023.58 1023.62 1023.63 1023.60 1023.55 1023.48 1023.40 1023.30 1023.19 1023.07 1022.95 1022.82 1022.68 1022.56 1022.43 1022.32 1022.22 1022.13 1022.06 1021.99
1015.19 1015.73 1016.29 1016.86 1017.42 1017.94 1018.43 1018.88 1019.28 1019.66 1020.00 1020.32 1020.63 1020.92 1021.22 1021.51 1021.80 1022.07 1022.34 1022.58 1022.79 1022.98 1023.13 1023.24 1023.32 1023.37 1023.38 1023.36 1023.32 1023.25 1023.16 1023.05 1022.93 1022.79 1022.64 1022.49 1022.33 1022.17 1022.03 1021.89 1021.77 1021.66 1021.58 1021.50
1015.22 1015.71 1016.22 1016.73 1017.23 1017.71 1018.17 1018.59 1018.99 1019.35 1019.70 1020.02 1020.33 1020.63 1020.92 1021.20 1021.48 1021.74 1021.99 1022.21 1022.42 1022.59 1022.74 1022.86 1022.95 1023.01 1023.04 1023.04 1023.01 1022.96 1022.88 1022.78 1022.65 1022.51 1022.35 1022.18 1022.01 1021.84 1021.67 1021.52 1021.38 1021.25 1021.14 1021.04
1015.29 1015.71 1016.14 1016.58 1017.02 1017.44 1017.85 1018.24 1018.61 1018.96 1019.29 1019.61 1019.91 1020.21 1020.49 1020.76 1021.02 1021.27 1021.50 1021.71 1021.90 1022.08 1022.23 1022.35 1022.46 1022.54 1022.59 1022.62 1022.62 1022.59 1022.53 1022.44 1022.33 1022.20 1022.04 1021.87 1021.69 1021.51 1021.34 1021.17 1021.02 1020.87 1020.74 1020.61
1015.37 1015.71 1016.06 1016.41 1016.77 1017.12 1017.47 1017.81 1018.15 1018.47 1018.78 1019.09 1019.38 1019.66 1019.92 1020.18 1020.42 1020.65 1020.87 1021.07 1021.26 1021.43 1021.59 1021.72 1021.85 1021.95 1022.03 1022.08 1022.11 1022.10 1022.07 1022.00 1021.91 1021.79 1021.65 1021.49 1021.32 1021.14 1020.97 1020.79 1020.63 1020.47 1020.31 1020.16
1015.43 1015.68 1015.95 1016.22 1016.49 1016.77 1017.05 1017.34 1017.62 1017.91 1018.19 1018.46 1018.73 1018.99 1019.24 1019.48 1019.71 1019.92 1020.12 1020.31 1020.49 1020.67 1020.83 1020.97 1021.11 1021.23 1021.33 1021.40 1021.45 1021.47 1021.46 1021.41 1021.34 1021.24 1021.12 1020.97 1020.82 1020.65 1020.48 1020.31 1020.15 1019.98 1019.82 1019.65
Thickness
5667 5673 5675 5673 5672 5670 5665 5660 5652 5657 5657 5660 5659 5656 5652 5647 5640 5634 5627 5620 5614 5607 5600 5593 5587 5582 5577 5572 5567 5564 5561 5557 5553 5550 5548 5546 5544 5542 5541 5540 5539 5539 5539 5540
5662 5669 5671 5668 5669 5668 5665 5662 5659 5658 5656 5660 5656 5652 5646 5640 5635 5628 5622 5615 5609 5602 5595 5588 5582 5576 5570 5566 5561 5558 5555 5551 5547 5544 5541 5539 5537 5536 5535 5534 5533 5532 5532 5532
5650 5660 5665 5654 5662 5665 5663 5663 5661 5655 5655 5652 5648 5645 5640 5636 5630 5623 5616 5610 5603 5596 5590 5583 5577 5571 5565 5560 5556 5552 5549 5546 5542 5539 5536 5534 5532 5530 5529 5527 5526 5525 5525 5525
5643 5652 5643 5655 5669 5668 5662 5659 5660 5657 5652 5649 5645 5640 5636 5631 5625 5618 5611 5604 5597 5590 5584 5578 5572 5566 5560 5556 5552 5548 5544 5541 5538 5535 5531 5529 5527 5525 5524 5522 5521 5520 5519 5519
5636 5638 5644 5658 5665 5662 5657 5654 5655 5651 5646 5641 5637 5633 5627 5624 5620 5613 5607 5599 5592 5585 5579 5573 5567 5562 5556 5552 5547 5544 5540 5537 5534 5530 5527 5525 5523 5521 5519 5518 5517 5516 5515 5514
5637 5638 5638 5652 5666 5668 5659 5648 5652 5648 5641 5636 5633 5624 5621 5619 5614 5607 5600 5593 5586 5580 5574 5568 5562 5557 5553 5548 5543 5540 5536 5533 5530 5527 5524 5521 5519 5517 5515 5514 5513 5512 5512 5511
5635 5635 5641 5657 5663 5663 5645 5644 5650 5645 5639 5633 5628 5623 5618 5613 5607 5601 5595 5588 5581 5575 5569 5564 5558 5554 5549 5544 5540 5537 5534 5530 5527 5524 5521 5519 5516 5514 5512 5511 5510 5509 5509 5509
5632 5633 5638 5658 5659 5651 5648 5650 5647 5641 5635 5629 5622 5617 5612 5607 5601 5595 5588 5582 5576 5571 5564 5559 5555 5551 5546 5541 5538 5535 5531 5528 5525 5522 5520 5518 5515 5512 5510 5509 5508 5507 5507 5507
5638 5639 5648 5652 5653 5653 5650 5646 5642 5636 5630 5625 5618 5612 5606 5600 5594 5589 5584 5578 5572 5567 5562 5556 5553 5549 5544 5540 5537 5533 5529 5526 5524 5521 5519 5516 5514 5511 5510 5508 5507 5506 5506 5506
5641 5646 5650 5651 5651 5650 5648 5644 5639 5634 5627 5622 5615 5608 5602 5595 5589 5584 5579 5574 5569 5564 5559 5554 5550 5547 5543 5539 5536 5532 5528 5525 5523 5520 5518 5515 5513 5512 5510 5509 5508 5507 5507 5507
5642 5647 5649 5650 5648 5645 5643 5639 5634 5629 5624 5618 5612 5604 5598 5591 5586 5581 5576 5571 5567 5562 5558 5554 5549 5546 5542 5539 5535 5532 5528 5525 5523 5520 5518 5516 5514 5512 5512 5511 5509 5509 5509 5509
5644 5648 5645 5645 5646 5643 5639 5634 5630 5625 5618 5613 5609 5602 5595 5589 5584 5579 5574 5569 5565 5561 5557 5553 5550 5546 5543 5540 5537 5533 5529 5526 5524 5522 5519 5517 5516 5515 5515 5514 5514 5514 5513 5513
5653 5653 5648 5647 5644 5641 5636 5631 5628 5623 5617 5611 5605 5600 5594 5587 5582 5578 5574 5569 5565 5562 5558 5554 5551 5547 5544 5541 5538 5535 5532 5529 5526 5524 5523 5521 5519 5518 5518 5518 5519 5519 5519 5519
5655 5652 5646 5644 5640 5637 5633 5629 5624 5619 5614 5609 5603 5598 5593 5587 5582 5578 5574 5571 5567 5563 5559 5555 5552 5549 5546 5543 5540 5537 5534 5532 5530 5528 5527 5525 5523 5522 5521 5521 5522 5523 5524 5525
5655 5653 5647 5643 5638 5633 5629 5625 5619 5614 5609 5605 5600 5596 5592 5587 5583 5579 5575 5572 5568 5564 5561 5557 5554 5551 5549 5546 5543 5540 5538 5535 5533 5532 5531 5529 5528 5527 5526 5526 5526 5526 5528 5530
5653 5649 5645 5640 5635 5630 5626 5622 5617 5612 5608 5604 5600 5596 5593 5589 5584 5580 5576 5573 5569 5565 5563 5560 5557 5555 5552 5549 5546 5543 5541 5540 5538 5536 5535 5534 5533 5532 5532 5532 5532 5532 5534 5535
5649 5644 5641 5637 5633 5629 5626 5622 5619 5614 5609 5605 5601 5597 5593 5588 5584 5580 5577 5574 5572 5569 5566 5563 5561 5559 5556 5553 5550 5547 5545 5544 5543 5541 5540 5540 5539 5538 5538 5538 5539 5539 5541 5542
5656 5651 5647 5642 5637 5631 5627 5623 5619 5615 5611 5607 5603 5598 5593 5589 5586 5582 5579 5576 5572 5570 5568 5566 5565 5562 5560 5557 5554 5552 5550 5549 5548 5547 5546 5546 5545 5545 5545 5545 5545 5546 5548 5549
5654 5650 5646 5642 5638 5633 5629 5624 5621 5617 5613 5609 5604 5599 5596 5593 5589 5585 5582 5578 5575 5573 5572 5570 5568 5565 5563 5561 5559 5557 5555 5554 5553 5552 5552 5551 5551 5551 5551 5551 5552 5553 5554 5555
5653 5649 5645 5641 5638 5633 5629 5626 5622 5618 5614 5610 5605 5601 5598 5595 5592 5588 5584 5581 5581 5580 5578 5574 5571 5569 5567 5565 5563 5562 5560 5560 5559 5558 5557 5557 5557 5557 5557 5558 5558 5559 5560 5561
5650 5647 5644 5640 5636 5634 5631 5628 5623 5619 5615 5611 5608 5604 5601 5598 5595 5591 5587 5585 5585 5583 5581 5578 5575 5574 5572 5570 5568 5566 5565 5564 5564 5563 5563 5563 5563 5563 5563 5564 5565 5565 5566 5567
5648 5645 5642 5638 5635 5632 5630 5628 5625 5621 5617 5613 5610 5607 5603 5599 5596 5593 5592 5591 5591 5587 5584 5582 5580 5579 5577 5574 5572 5571 5570 5569 5569 5569 5568 5568 5568 5568 5569 5570 5570 5571 5572 5572
5646 5643 5640 5637 5634 5632 5630 5627 5625 5622 5619 5615 5613 5609 5606 5603 5601 5597 5595 5595 5593 5591 5588 5587 5585 5583 5580 5578 5577 5576 5575 5574 5574 5574 5574 5574 5574 5574 5574 5575 5576 5576 5577 5577
5644 5641 5638 5636 5633 5630 5627 5626 5624 5622 5620 5618 5615 5613 5609 5605 5602 5602 5602 5600 5597 5594 5593 5591 5589 5587 5583 5582 5581 5580 5580 5579 5579 5579 5579 5579 5579 5579 5580 5580 5581 5582 5582 5582
5641 5639 5637 5634 5631 5629 5628 5626 5623 5621 5619 5617 5616 5614 5612 5610 5608 5607 5604 5603 5600 5597 5596 5595 5592 5590 5587 5586 5586 5585 5585 5585 5584 5584 5584 5584 5584 5585 5585 5585 5586 5586 5587 5587
5639 5636 5635 5633 5632 5629 5628 5625 5623 5621 5619 5617 5616 5615 5613 5612 5610 5608 5606 5605 5603 5601 5599 5598 5596 5593 5592 5591 5590 5590 5590 5589 5589 5589 5589 5589 5589 5589 5589 5590 5590 5591 5591 5592
5635 5634 5632 5630 5630 5629 5627 5626 5624 5622 5620 5619 5617 5617 5615 5613 5611 5610 5608 5607 5605 5604 5603 5601 5600 5598 5597 5595 5595 5594 5594 5594 5593 5593 5593 5593 5593 5594 5594 5594 5595 5595 5595 5596